When you browse on this site, cookies collect data to enhance your experience and personalize the content and advertising you see.
Visit our Privacy Policy to learn more. By continuing to use the site, you agree to this use of cookies and data.
  • En España
  • Lista de países
  • Para 7 días
  • Temperatura del agua
  • Mapa Satelital
  • El tiempo en el mapa
  • Informadores
  • user-avatar
    Iniciar sesión

    Tiempo cada hora Porech

    Hoy, 21 Abril, Domingo

    Tiempo Temperatura Precipitaciones Viento Presión Humedad
    00:00 +14°C° 0 mm 2 mps 767 mmHg 59%
    01:00 +14°C° 0 mm 2 mps 767 mmHg 57%
    02:00 +14°C° 0 mm 2 mps 766 mmHg 56%
    03:00 +13°C° 0 mm 2 mps 766 mmHg 55%
    04:00 +12°C° 0 mm 3 mps 766 mmHg 54%
    05:00 +14°C° 0 mm 2 mps 765 mmHg 54%
    06:00 +15°C° 0 mm 2 mps 765 mmHg 54%
    07:00 +16°C° 0 mm 2 mps 765 mmHg 54%
    08:00 +18°C° 0 mm 2 mps 765 mmHg 47%
    09:00 +21°C° 0 mm 1 mps 764 mmHg 40%
    10:00 +23°C° 0 mm 1 mps 764 mmHg 33%
    11:00 +23°C° 0 mm 2 mps 764 mmHg 32%
    12:00 +22°C° 0 mm 3 mps 764 mmHg 31%
    13:00 +23°C° 0 mm 4 mps 764 mmHg 30%
    14:00 +22°C° 0 mm 4 mps 763 mmHg 32%
    15:00 +21°C° 0 mm 3 mps 763 mmHg 34%
    16:00 +21°C° 0 mm 3 mps 762 mmHg 36%
    17:00 +19°C° 0 mm 3 mps 762 mmHg 48%
    18:00 +17°C° 0 mm 4 mps 762 mmHg 59%
    19:00 +13°C° 0 mm 4 mps 762 mmHg 70%
    20:00 +13°C° 0 mm 4 mps 762 mmHg 72%
    21:00 +12°C° 0 mm 4 mps 763 mmHg 74%
    22:00 +12°C° 0 mm 5 mps 763 mmHg 76%
    23:00 +11°C° 0 mm 4 mps 763 mmHg 75%

    Mañana, 22 Abril, Lunes

    Tiempo Temperatura Precipitaciones Viento Presión Humedad
    00:00 +11°C° 0 mm 4 mps 763 mmHg 75%
    01:00 +11°C° 0 mm 3 mps 762 mmHg 75%
    02:00 +11°C° 0 mm 4 mps 762 mmHg 76%
    03:00 +11°C° 0 mm 4 mps 762 mmHg 76%
    04:00 +11°C° 0 mm 4 mps 761 mmHg 77%
    05:00 +12°C° 0 mm 5 mps 761 mmHg 76%
    06:00 +13°C° 0 mm 5 mps 760 mmHg 75%
    07:00 +14°C° 0 mm 6 mps 760 mmHg 74%
    08:00 +15°C° 0 mm 6 mps 759 mmHg 69%
    09:00 +16°C° 0 mm 6 mps 759 mmHg 65%
    10:00 +19°C° 0 mm 6 mps 758 mmHg 60%
    11:00 +19°C° 0 mm 6 mps 758 mmHg 58%
    12:00 +20°C° 0 mm 7 mps 757 mmHg 55%
    13:00 +20°C° 0 mm 7 mps 757 mmHg 52%
    14:00 +20°C° 0 mm 6 mps 756 mmHg 54%
    15:00 +20°C° 0 mm 6 mps 756 mmHg 55%
    16:00 +19°C° 0 mm 6 mps 755 mmHg 56%
    17:00 +17°C° 0.1 mm 5 mps 755 mmHg 64%
    18:00 +16°C° 0.1 mm 5 mps 755 mmHg 71%
    19:00 +14°C° 0.1 mm 5 mps 755 mmHg 78%
    20:00 +14°C° 0.2 mm 6 mps 755 mmHg 78%
    21:00 +14°C° 0.2 mm 6 mps 755 mmHg 79%
    22:00 +14°C° 0.2 mm 7 mps 755 mmHg 79%
    23:00 +14°C° 2.5 mm 7 mps 754 mmHg 84%

    Pasado mañana, 23 Abril, Martes

    Tiempo Temperatura Precipitaciones Viento Presión Humedad
    00:00 +12°C° 2.5 mm 7 mps 753 mmHg 88%
    01:00 +12°C° 2.5 mm 7 mps 753 mmHg 93%
    02:00 +12°C° 2.9 mm 7 mps 752 mmHg 93%
    03:00 +12°C° 2.9 mm 7 mps 752 mmHg 94%
    04:00 +12°C° 2.9 mm 7 mps 751 mmHg 95%
    05:00 +12°C° 1.7 mm 7 mps 751 mmHg 95%
    06:00 +12°C° 1.7 mm 8 mps 751 mmHg 94%
    07:00 +13°C° 1.7 mm 8 mps 751 mmHg 94%
    08:00 +13°C° 0.4 mm 8 mps 751 mmHg 93%
    09:00 +15°C° 0.4 mm 8 mps 751 mmHg 92%
    10:00 +15°C° 0.4 mm 8 mps 752 mmHg 91%
    11:00 +15°C° 0.6 mm 8 mps 752 mmHg 90%
    12:00 +16°C° 0.6 mm 8 mps 752 mmHg 88%
    13:00 +16°C° 0.6 mm 7 mps 752 mmHg 87%
    14:00 +16°C° 0.8 mm 7 mps 752 mmHg 89%
    15:00 +16°C° 0.8 mm 6 mps 752 mmHg 91%
    16:00 +15°C° 0.8 mm 6 mps 752 mmHg 93%
    17:00 +15°C° 0.2 mm 6 mps 752 mmHg 93%
    18:00 +15°C° 0.2 mm 6 mps 752 mmHg 93%
    19:00 +15°C° 0.2 mm 5 mps 753 mmHg 94%
    20:00 +14°C° 0.2 mm 6 mps 753 mmHg 93%
    21:00 +14°C° 0.2 mm 7 mps 754 mmHg 93%
    22:00 +14°C° 0.2 mm 7 mps 754 mmHg 93%
    23:00 +14°C° 0.4 mm 7 mps 755 mmHg 93%

    24 Abril, Miércoles

    Tiempo Temperatura Precipitaciones Viento Presión Humedad
    00:00 +13°C° 0.4 mm 8 mps 755 mmHg 93%
    01:00 +13°C° 0.4 mm 8 mps 756 mmHg 93%
    02:00 +13°C° 0 mm 8 mps 756 mmHg 93%
    03:00 +13°C° 0 mm 8 mps 756 mmHg 93%
    04:00 +13°C° 0 mm 8 mps 756 mmHg 93%
    05:00 +14°C° 0 mm 7 mps 757 mmHg 92%
    06:00 +15°C° 0 mm 6 mps 757 mmHg 91%
    07:00 +15°C° 0 mm 6 mps 758 mmHg 91%
    08:00 +16°C° 0 mm 6 mps 758 mmHg 86%
    09:00 +17°C° 0 mm 5 mps 759 mmHg 81%
    10:00 +19°C° 0 mm 5 mps 760 mmHg 76%
    11:00 +20°C° 0 mm 5 mps 760 mmHg 76%
    12:00 +20°C° 0 mm 6 mps 760 mmHg 75%
    13:00 +20°C° 0 mm 6 mps 760 mmHg 75%
    14:00 +20°C° 0 mm 6 mps 760 mmHg 76%
    15:00 +20°C° 0 mm 7 mps 761 mmHg 77%
    16:00 +20°C° 0 mm 7 mps 761 mmHg 78%
    17:00 +18°C° 0 mm 7 mps 761 mmHg 82%
    18:00 +16°C° 0 mm 7 mps 761 mmHg 86%
    19:00 +15°C° 0 mm 7 mps 761 mmHg 91%
    20:00 +15°C° 0 mm 7 mps 761 mmHg 91%
    21:00 +15°C° 0 mm 6 mps 762 mmHg 92%
    22:00 +14°C° 0 mm 6 mps 762 mmHg 93%
    23:00 +14°C° 0 mm 6 mps 762 mmHg 92%

    25 Abril, Jueves

    Tiempo Temperatura Precipitaciones Viento Presión Humedad
    00:00 +14°C° 0 mm 5 mps 762 mmHg 91%
    01:00 +14°C° 0 mm 5 mps 762 mmHg 91%
    02:00 +14°C° 0 mm 5 mps 762 mmHg 89%
    03:00 +14°C° 0 mm 6 mps 762 mmHg 88%
    04:00 +14°C° 0 mm 6 mps 762 mmHg 86%
    05:00 +14°C° 0 mm 6 mps 762 mmHg 86%
    06:00 +15°C° 0 mm 6 mps 762 mmHg 86%
    07:00 +16°C° 0 mm 6 mps 762 mmHg 87%
    08:00 +16°C° 0 mm 6 mps 763 mmHg 86%
    09:00 +17°C° 0 mm 6 mps 763 mmHg 86%
    10:00 +17°C° 0 mm 6 mps 763 mmHg 85%
    11:00 +17°C° 0 mm 6 mps 763 mmHg 83%
    12:00 +19°C° 0 mm 6 mps 763 mmHg 81%
    13:00 +19°C° 0 mm 6 mps 763 mmHg 79%
    14:00 +20°C° 0 mm 6 mps 762 mmHg 76%
    15:00 +20°C° 0 mm 5 mps 762 mmHg 73%
    16:00 +20°C° 0 mm 4 mps 761 mmHg 71%
    17:00 +19°C° 0 mm 4 mps 761 mmHg 74%
    18:00 +18°C° 0 mm 4 mps 762 mmHg 78%
    19:00 +17°C° 0 mm 4 mps 762 mmHg 82%
    20:00 +15°C° 0 mm 4 mps 762 mmHg 84%
    21:00 +14°C° 0 mm 4 mps 762 mmHg 87%
    22:00 +14°C° 0 mm 4 mps 762 mmHg 90%
    23:00 +14°C° 0 mm 4 mps 761 mmHg 91%

    26 Abril, Viernes

    Tiempo Temperatura Precipitaciones Viento Presión Humedad
    00:00 +13°C° 0 mm 4 mps 761 mmHg 92%
    01:00 +13°C° 0 mm 4 mps 761 mmHg 92%
    02:00 +14°C° 0 mm 4 mps 761 mmHg 91%
    03:00 +14°C° 0 mm 4 mps 761 mmHg 90%
    04:00 +14°C° 0 mm 4 mps 760 mmHg 89%
    05:00 +15°C° 0 mm 4 mps 760 mmHg 87%
    06:00 +15°C° 0 mm 5 mps 760 mmHg 85%
    07:00 +16°C° 0 mm 5 mps 760 mmHg 84%
    08:00 +16°C° 0 mm 5 mps 760 mmHg 86%
    09:00 +16°C° 0 mm 5 mps 760 mmHg 89%
    10:00 +17°C° 0 mm 4 mps 760 mmHg 92%
    11:00 +18°C° 0 mm 4 mps 760 mmHg 89%
    12:00 +19°C° 0 mm 4 mps 759 mmHg 85%
    13:00 +20°C° 0 mm 4 mps 759 mmHg 82%
    14:00 +20°C° 0.1 mm 4 mps 759 mmHg 82%
    15:00 +20°C° 0.1 mm 5 mps 758 mmHg 82%
    16:00 +20°C° 0.1 mm 5 mps 758 mmHg 82%
    17:00 +19°C° 0.3 mm 5 mps 758 mmHg 85%
    18:00 +16°C° 0.3 mm 5 mps 758 mmHg 89%
    19:00 +15°C° 0.3 mm 5 mps 759 mmHg 92%
    20:00 +15°C° 0.1 mm 4 mps 759 mmHg 92%
    21:00 +16°C° 0.1 mm 3 mps 760 mmHg 92%
    22:00 +16°C° 0.1 mm 2 mps 760 mmHg 92%
    23:00 +15°C° 0.1 mm 2 mps 760 mmHg 91%
    Mostrar más